Time,TemperatureF,DewpointF,PressureIn,WindDirection,WindDirectionDegrees,WindSpeedMPH,WindSpeedGustMPH,Humidity,HourlyPrecipIn,Conditions,Clouds,dailyrainin,SoftwareType,DateUTC
2013-08-03 00:00:00,66.5,60.8,29.90,West,278,0.0,0.0,82,0.00,,,0.00,VWS V14.01,2013-08-03 04:00:00,
2013-08-03 00:01:00,66.5,60.8,29.90,West,278,0.0,0.0,82,0.00,,,0.00,VWS V14.01,2013-08-03 04:01:00,
2013-08-03 00:06:00,66.4,60.7,29.90,West,278,0.0,0.0,82,0.00,,,0.00,VWS V14.01,2013-08-03 04:06:00,
2013-08-03 00:11:00,66.2,60.5,29.90,West,278,0.0,0.0,82,0.00,,,0.00,VWS V14.01,2013-08-03 04:11:00,
2013-08-03 00:16:00,66.1,60.5,29.90,West,278,0.0,0.0,82,0.00,,,0.00,VWS V14.01,2013-08-03 04:16:00,
2013-08-03 00:21:00,66.0,60.3,29.90,West,278,0.0,0.0,82,0.00,,,0.00,VWS V14.01,2013-08-03 04:21:00,
2013-08-03 00:26:00,65.9,60.3,29.90,West,278,0.0,0.0,82,0.00,,,0.00,VWS V14.01,2013-08-03 04:26:00,
2013-08-03 00:31:00,65.8,60.2,29.89,West,278,0.0,0.0,82,0.00,,,0.00,VWS V14.01,2013-08-03 04:31:00,
2013-08-03 00:36:00,65.8,60.2,29.89,West,277,0.0,0.0,82,0.00,,,0.00,VWS V14.01,2013-08-03 04:36:00,
2013-08-03 00:41:00,65.7,60.1,29.89,West,278,0.0,0.0,82,0.00,,,0.00,VWS V14.01,2013-08-03 04:41:00,
2013-08-03 00:46:00,65.6,60.0,29.89,West,278,0.0,0.0,82,0.00,,,0.00,VWS V14.01,2013-08-03 04:46:00,
2013-08-03 00:51:00,65.5,59.9,29.89,West,278,0.0,0.0,82,0.00,,,0.00,VWS V14.01,2013-08-03 04:51:00,
2013-08-03 00:56:00,65.4,59.8,29.89,West,278,0.0,0.0,82,0.00,,,0.00,VWS V14.01,2013-08-03 04:56:00,
2013-08-03 01:01:00,65.3,59.7,29.89,West,278,0.0,0.0,82,0.00,,,0.00,VWS V14.01,2013-08-03 05:01:00,
2013-08-03 01:06:00,65.3,59.7,29.89,West,278,0.0,0.0,82,0.00,,,0.00,VWS V14.01,2013-08-03 05:06:00,
2013-08-03 01:11:00,65.2,59.6,29.89,West,278,0.0,0.0,82,0.00,,,0.00,VWS V14.01,2013-08-03 05:11:00,
2013-08-03 01:16:00,65.1,59.5,29.90,West,278,0.0,0.0,82,0.00,,,0.00,VWS V14.01,2013-08-03 05:16:00,
2013-08-03 01:21:00,65.1,59.5,29.90,West,278,0.0,0.0,82,0.00,,,0.00,VWS V14.01,2013-08-03 05:21:00,
2013-08-03 01:26:00,65.0,59.4,29.90,West,278,0.0,0.0,82,0.00,,,0.00,VWS V14.01,2013-08-03 05:26:00,
2013-08-03 01:31:00,64.9,59.3,29.89,West,278,0.0,0.0,82,0.00,,,0.00,VWS V14.01,2013-08-03 05:31:00,
2013-08-03 01:36:00,64.8,59.2,29.89,West,278,0.0,0.0,82,0.00,,,0.00,VWS V14.01,2013-08-03 05:36:00,
2013-08-03 01:41:00,64.7,59.1,29.89,West,278,0.0,0.0,82,0.00,,,0.00,VWS V14.01,2013-08-03 05:41:00,
2013-08-03 01:46:00,64.6,59.0,29.89,West,278,0.0,0.0,82,0.00,,,0.00,VWS V14.01,2013-08-03 05:46:00,
2013-08-03 01:51:00,64.5,58.9,29.89,West,278,0.0,0.0,82,0.00,,,0.00,VWS V14.01,2013-08-03 05:51:00,
2013-08-03 01:56:00,64.5,59.2,29.89,West,278,0.0,0.0,83,0.00,,,0.00,VWS V14.01,2013-08-03 05:56:00,
2013-08-03 02:01:00,64.4,59.1,29.88,West,278,0.0,0.0,83,0.00,,,0.00,VWS V14.01,2013-08-03 06:01:00,
2013-08-03 02:06:00,64.3,59.0,29.88,West,278,0.0,0.0,83,0.00,,,0.00,VWS V14.01,2013-08-03 06:06:00,
2013-08-03 02:11:00,64.2,59.3,29.88,West,278,0.0,0.0,84,0.00,,,0.00,VWS V14.01,2013-08-03 06:11:00,
2013-08-03 02:16:00,64.1,59.2,29.87,West,278,0.0,0.0,84,0.00,,,0.00,VWS V14.01,2013-08-03 06:16:00,
2013-08-03 02:21:00,64.1,59.2,29.87,West,278,0.0,0.0,84,0.00,,,0.00,VWS V14.01,2013-08-03 06:21:00,
2013-08-03 02:26:00,64.0,59.1,29.87,West,278,0.0,0.0,84,0.00,,,0.00,VWS V14.01,2013-08-03 06:26:00,
2013-08-03 02:31:00,63.9,59.0,29.88,West,277,0.0,0.0,84,0.00,,,0.00,VWS V14.01,2013-08-03 06:31:00,
2013-08-03 02:36:00,63.9,59.3,29.88,West,278,0.0,0.0,85,0.00,,,0.00,VWS V14.01,2013-08-03 06:36:00,
2013-08-03 02:41:00,63.9,59.3,29.88,West,278,0.0,0.0,85,0.00,,,0.00,VWS V14.01,2013-08-03 06:41:00,
2013-08-03 02:46:00,63.8,59.2,29.87,West,278,0.0,0.0,85,0.00,,,0.00,VWS V14.01,2013-08-03 06:46:00,
2013-08-03 02:51:00,63.8,59.2,29.87,West,278,0.0,0.0,85,0.00,,,0.00,VWS V14.01,2013-08-03 06:51:00,
2013-08-03 02:56:00,63.8,59.2,29.87,West,278,0.0,0.0,85,0.00,,,0.00,VWS V14.01,2013-08-03 06:56:00,
2013-08-03 03:01:00,63.7,59.1,29.86,West,278,0.0,0.0,85,0.00,,,0.00,VWS V14.01,2013-08-03 07:01:00,
2013-08-03 03:06:00,63.6,59.0,29.86,West,278,0.0,0.0,85,0.00,,,0.00,VWS V14.01,2013-08-03 07:06:00,
2013-08-03 03:11:00,63.5,58.9,29.86,West,278,0.0,0.0,85,0.00,,,0.00,VWS V14.01,2013-08-03 07:11:00,
2013-08-03 03:16:00,63.4,58.8,29.86,West,277,0.0,0.0,85,0.00,,,0.00,VWS V14.01,2013-08-03 07:16:00,
2013-08-03 03:21:00,63.3,58.7,29.86,West,278,0.0,0.0,85,0.00,,,0.00,VWS V14.01,2013-08-03 07:21:00,
2013-08-03 03:26:00,63.3,59.0,29.86,West,278,0.0,0.0,86,0.00,,,0.00,VWS V14.01,2013-08-03 07:26:00,
2013-08-03 03:31:00,63.3,58.7,29.86,West,278,0.0,0.0,85,0.00,,,0.00,VWS V14.01,2013-08-03 07:31:00,
2013-08-03 03:36:00,63.3,59.0,29.86,West,278,0.0,0.0,86,0.00,,,0.00,VWS V14.01,2013-08-03 07:36:00,
2013-08-03 03:41:00,63.2,59.0,29.86,West,278,0.0,0.0,86,0.00,,,0.00,VWS V14.01,2013-08-03 07:41:00,
2013-08-03 03:46:00,63.2,59.0,29.86,West,277,0.0,0.0,86,0.00,,,0.00,VWS V14.01,2013-08-03 07:46:00,
2013-08-03 03:51:00,63.2,59.0,29.86,West,277,0.0,0.0,86,0.00,,,0.00,VWS V14.01,2013-08-03 07:51:00,
2013-08-03 03:56:00,63.2,59.0,29.86,West,278,0.0,0.0,86,0.00,,,0.00,VWS V14.01,2013-08-03 07:56:00,
2013-08-03 04:01:00,63.2,59.0,29.86,West,278,0.0,0.0,86,0.00,,,0.00,VWS V14.01,2013-08-03 08:01:00,
2013-08-03 04:06:00,63.4,59.5,29.86,West,278,0.0,0.0,87,0.00,,,0.00,VWS V14.01,2013-08-03 08:06:00,
2013-08-03 04:11:00,63.4,59.5,29.86,West,278,0.0,0.0,87,0.00,,,0.00,VWS V14.01,2013-08-03 08:11:00,
2013-08-03 04:16:00,63.5,59.6,29.86,West,278,0.0,0.0,87,0.00,,,0.00,VWS V14.01,2013-08-03 08:16:00,
2013-08-03 04:21:00,63.5,59.9,29.86,West,278,0.0,0.0,88,0.00,,,0.00,VWS V14.01,2013-08-03 08:21:00,
2013-08-03 04:26:00,63.6,60.0,29.86,West,278,0.0,0.0,88,0.00,,,0.00,VWS V14.01,2013-08-03 08:26:00,
2013-08-03 04:31:00,63.6,60.0,29.86,West,278,0.0,0.0,88,0.00,,,0.00,VWS V14.01,2013-08-03 08:31:00,
2013-08-03 04:36:00,63.6,60.0,29.86,West,278,0.0,0.0,88,0.00,,,0.00,VWS V14.01,2013-08-03 08:36:00,
2013-08-03 04:41:00,63.6,60.0,29.86,West,278,0.0,0.0,88,0.00,,,0.00,VWS V14.01,2013-08-03 08:41:00,
2013-08-03 04:46:00,63.7,60.1,29.87,West,278,0.0,0.0,88,0.00,,,0.00,VWS V14.01,2013-08-03 08:46:00,
2013-08-03 04:51:00,63.7,60.1,29.87,West,278,0.0,0.0,88,0.00,,,0.00,VWS V14.01,2013-08-03 08:51:00,
2013-08-03 04:56:00,63.8,60.2,29.87,West,278,0.0,0.0,88,0.00,,,0.00,VWS V14.01,2013-08-03 08:56:00,
2013-08-03 05:01:00,63.8,60.2,29.87,West,278,0.0,0.0,88,0.00,,,0.00,VWS V14.01,2013-08-03 09:01:00,
2013-08-03 05:06:00,63.9,60.3,29.87,West,278,0.0,0.0,88,0.00,,,0.00,VWS V14.01,2013-08-03 09:06:00,
2013-08-03 05:11:00,63.8,60.2,29.87,West,278,0.0,0.0,88,0.00,,,0.00,VWS V14.01,2013-08-03 09:11:00,
2013-08-03 05:16:00,63.8,60.2,29.88,West,278,0.0,0.0,88,0.00,,,0.00,VWS V14.01,2013-08-03 09:16:00,
2013-08-03 05:21:00,63.7,60.4,29.88,West,278,0.0,0.0,89,0.00,,,0.00,VWS V14.01,2013-08-03 09:21:00,
2013-08-03 05:26:00,63.7,60.4,29.88,West,278,0.0,0.0,89,0.00,,,0.00,VWS V14.01,2013-08-03 09:26:00,
2013-08-03 05:31:00,63.6,60.3,29.88,West,278,0.0,0.0,89,0.00,,,0.00,VWS V14.01,2013-08-03 09:31:00,
2013-08-03 05:36:00,63.6,60.3,29.88,West,278,0.0,0.0,89,0.00,,,0.00,VWS V14.01,2013-08-03 09:36:00,
2013-08-03 05:41:00,63.6,60.3,29.88,West,278,0.0,0.0,89,0.00,,,0.00,VWS V14.01,2013-08-03 09:41:00,
2013-08-03 05:46:00,63.6,60.3,29.87,West,278,0.0,0.0,89,0.00,,,0.00,VWS V14.01,2013-08-03 09:46:00,
2013-08-03 05:51:00,63.5,60.5,29.87,West,278,0.0,0.0,90,0.00,,,0.00,VWS V14.01,2013-08-03 09:51:00,
2013-08-03 05:56:00,63.5,60.5,29.87,West,278,0.0,0.0,90,0.00,,,0.00,VWS V14.01,2013-08-03 09:56:00,
2013-08-03 06:01:00,63.4,60.4,29.88,West,278,0.0,0.0,90,0.00,,,0.00,VWS V14.01,2013-08-03 10:01:00,
2013-08-03 06:05:00,63.3,60.3,29.88,West,278,0.0,0.0,90,0.00,,,0.00,VWS V14.01,2013-08-03 10:05:00,
2013-08-03 06:10:00,63.3,60.3,29.88,West,278,0.0,0.0,90,0.00,,,0.00,VWS V14.01,2013-08-03 10:10:00,
2013-08-03 06:16:00,63.1,59.8,29.89,West,279,0.0,0.0,89,0.00,,,0.00,VWS V14.01,2013-08-03 10:16:00,
2013-08-03 06:20:00,63.1,59.8,29.89,West,279,0.0,0.0,89,0.00,,,0.00,VWS V14.01,2013-08-03 10:20:00,
2013-08-03 06:25:00,63.2,59.9,29.89,West,279,0.0,0.0,89,0.00,,,0.00,VWS V14.01,2013-08-03 10:25:00,
2013-08-03 06:31:00,63.2,60.2,29.88,West,279,0.0,0.0,90,0.00,,,0.00,VWS V14.01,2013-08-03 10:31:00,
2013-08-03 06:35:00,63.3,60.3,29.88,West,279,0.0,0.0,90,0.00,,,0.00,VWS V14.01,2013-08-03 10:35:00,
2013-08-03 06:41:00,63.3,60.3,29.88,West,279,0.0,0.0,90,0.00,,,0.00,VWS V14.01,2013-08-03 10:41:00,
2013-08-03 06:46:00,63.3,60.3,29.88,West,279,0.0,0.0,90,0.00,,,0.00,VWS V14.01,2013-08-03 10:46:00,
2013-08-03 06:51:00,63.3,60.3,29.88,West,279,0.0,0.0,90,0.00,,,0.00,VWS V14.01,2013-08-03 10:51:00,
2013-08-03 06:56:00,63.3,60.3,29.88,West,279,0.0,0.0,90,0.00,,,0.00,VWS V14.01,2013-08-03 10:56:00,
2013-08-03 07:01:00,63.4,60.4,29.89,West,279,0.0,0.0,90,0.00,,,0.00,VWS V14.01,2013-08-03 11:01:00,
2013-08-03 07:06:00,63.4,60.4,29.89,West,279,0.0,0.0,90,0.00,,,0.00,VWS V14.01,2013-08-03 11:06:00,
2013-08-03 07:11:00,63.4,60.4,29.89,West,279,0.0,0.0,90,0.00,,,0.00,VWS V14.01,2013-08-03 11:11:00,
2013-08-03 07:16:00,63.4,60.4,29.89,West,279,0.0,0.0,90,0.00,,,0.00,VWS V14.01,2013-08-03 11:16:00,
2013-08-03 07:20:00,63.4,60.4,29.89,West,279,0.0,0.0,90,0.00,,,0.00,VWS V14.01,2013-08-03 11:20:00,
2013-08-03 07:25:00,63.4,60.4,29.89,West,279,0.0,0.0,90,0.01,,,0.01,VWS V14.01,2013-08-03 11:25:00,
2013-08-03 07:30:00,63.4,60.4,29.89,West,279,0.0,0.0,90,0.01,,,0.01,VWS V14.01,2013-08-03 11:30:00,
2013-08-03 07:35:00,63.4,60.4,29.89,West,279,0.0,0.0,90,0.01,,,0.01,VWS V14.01,2013-08-03 11:35:00,
2013-08-03 07:40:00,63.4,60.7,29.89,West,279,0.0,0.0,91,0.02,,,0.02,VWS V14.01,2013-08-03 11:40:00,
2013-08-03 07:45:00,63.4,60.7,29.88,West,279,0.0,0.0,91,0.02,,,0.02,VWS V14.01,2013-08-03 11:45:00,
2013-08-03 07:50:00,63.4,60.7,29.88,West,279,0.0,0.0,91,0.02,,,0.02,VWS V14.01,2013-08-03 11:50:00,
2013-08-03 07:55:00,63.5,60.8,29.88,West,279,0.0,0.0,91,0.02,,,0.02,VWS V14.01,2013-08-03 11:55:00,
2013-08-03 08:00:00,63.5,60.8,29.89,West,279,0.0,0.0,91,0.02,,,0.02,VWS V14.01,2013-08-03 12:00:00,
2013-08-03 08:05:00,63.5,60.8,29.89,West,279,0.0,0.0,91,0.02,,,0.02,VWS V14.01,2013-08-03 12:05:00,
2013-08-03 08:10:00,63.6,60.9,29.89,West,279,0.0,0.0,91,0.02,,,0.02,VWS V14.01,2013-08-03 12:10:00,
2013-08-03 08:15:00,63.6,61.2,29.89,West,279,0.0,0.0,92,0.02,,,0.02,VWS V14.01,2013-08-03 12:15:00,
2013-08-03 08:20:00,63.6,61.2,29.89,West,279,0.0,0.0,92,0.02,,,0.02,VWS V14.01,2013-08-03 12:20:00,
2013-08-03 08:25:00,63.5,60.8,29.89,West,279,0.0,0.0,91,0.02,,,0.02,VWS V14.01,2013-08-03 12:25:00,
2013-08-03 08:30:00,63.4,60.7,29.89,West,279,0.0,0.0,91,0.02,,,0.02,VWS V14.01,2013-08-03 12:30:00,
2013-08-03 08:35:00,63.4,61.0,29.89,West,279,0.0,0.0,92,0.01,,,0.02,VWS V14.01,2013-08-03 12:35:00,
2013-08-03 08:40:00,63.3,60.9,29.89,West,279,0.0,0.0,92,0.02,,,0.03,VWS V14.01,2013-08-03 12:40:00,
2013-08-03 08:45:00,63.3,60.9,29.90,West,279,0.0,0.0,92,0.01,,,0.03,VWS V14.01,2013-08-03 12:45:00,
2013-08-03 08:50:00,63.3,60.9,29.90,West,279,0.0,0.0,92,0.01,,,0.03,VWS V14.01,2013-08-03 12:50:00,
2013-08-03 08:55:00,63.3,60.9,29.90,West,279,0.0,0.0,92,0.01,,,0.03,VWS V14.01,2013-08-03 12:55:00,
2013-08-03 09:00:00,63.3,60.9,29.89,West,279,0.0,0.0,92,0.01,,,0.03,VWS V14.01,2013-08-03 13:00:00,
2013-08-03 09:05:00,63.4,61.0,29.89,West,279,0.0,0.0,92,0.01,,,0.03,VWS V14.01,2013-08-03 13:05:00,
2013-08-03 09:10:00,63.4,61.0,29.89,WNW,292,0.0,1.0,92,0.01,,,0.03,VWS V14.01,2013-08-03 13:10:00,
2013-08-03 09:15:00,63.5,61.4,29.88,WNW,292,0.0,0.0,93,0.01,,,0.03,VWS V14.01,2013-08-03 13:15:00,
2013-08-03 09:20:00,63.6,61.5,29.88,WNW,292,0.0,0.0,93,0.01,,,0.03,VWS V14.01,2013-08-03 13:20:00,
2013-08-03 09:25:00,63.6,61.5,29.88,WNW,285,0.0,0.0,93,0.01,,,0.03,VWS V14.01,2013-08-03 13:25:00,
2013-08-03 09:30:00,63.7,61.6,29.88,WSW,252,2.0,2.0,93,0.01,,,0.03,VWS V14.01,2013-08-03 13:30:00,
2013-08-03 09:35:00,63.7,61.6,29.88,WSW,252,0.0,0.0,93,0.01,,,0.03,VWS V14.01,2013-08-03 13:35:00,
2013-08-03 09:40:00,63.7,61.6,29.88,WSW,252,0.0,0.0,93,0.02,,,0.04,VWS V14.01,2013-08-03 13:40:00,
2013-08-03 09:45:00,63.7,61.6,29.88,WSW,252,0.0,0.0,93,0.01,,,0.04,VWS V14.01,2013-08-03 13:45:00,
2013-08-03 09:50:00,63.8,61.7,29.88,WSW,252,0.0,0.0,93,0.01,,,0.04,VWS V14.01,2013-08-03 13:50:00,
2013-08-03 09:55:00,63.8,61.7,29.88,West,271,3.0,3.0,93,0.01,,,0.04,VWS V14.01,2013-08-03 13:55:00,
2013-08-03 10:00:00,63.9,61.8,29.88,West,271,0.0,3.0,93,0.01,,,0.04,VWS V14.01,2013-08-03 14:00:00,
2013-08-03 10:05:00,63.9,61.8,29.88,West,267,0.0,2.0,93,0.01,,,0.04,VWS V14.01,2013-08-03 14:05:00,
2013-08-03 10:10:00,64.0,61.9,29.88,WSW,245,0.0,5.0,93,0.01,,,0.04,VWS V14.01,2013-08-03 14:10:00,
2013-08-03 10:15:00,64.1,62.0,29.89,WSW,245,0.0,1.0,93,0.02,,,0.05,VWS V14.01,2013-08-03 14:15:00,
2013-08-03 10:20:00,64.2,62.4,29.89,WSW,245,0.0,1.0,94,0.02,,,0.05,VWS V14.01,2013-08-03 14:20:00,
2013-08-03 10:25:00,64.3,62.5,29.89,WSW,245,0.0,2.0,94,0.02,,,0.05,VWS V14.01,2013-08-03 14:25:00,
2013-08-03 10:30:00,64.4,62.6,29.90,West,261,0.0,4.0,94,0.02,,,0.05,VWS V14.01,2013-08-03 14:30:00,
2013-08-03 10:35:00,64.6,62.8,29.90,NW,307,0.0,5.0,94,0.02,,,0.05,VWS V14.01,2013-08-03 14:35:00,
2013-08-03 10:40:00,64.7,62.9,29.90,NW,307,0.0,5.0,94,0.02,,,0.05,VWS V14.01,2013-08-03 14:40:00,
2013-08-03 10:45:00,64.9,63.1,29.90,NW,307,0.0,0.0,94,0.01,,,0.05,VWS V14.01,2013-08-03 14:45:00,
2013-08-03 10:50:00,65.0,63.2,29.90,WNW,295,0.0,3.0,94,0.01,,,0.05,VWS V14.01,2013-08-03 14:50:00,
2013-08-03 10:55:00,65.1,63.3,29.90,WNW,292,0.0,5.0,94,0.01,,,0.05,VWS V14.01,2013-08-03 14:55:00,
2013-08-03 11:00:00,65.2,63.4,29.90,West,269,0.0,5.0,94,0.01,,,0.05,VWS V14.01,2013-08-03 15:00:00,
2013-08-03 11:05:00,65.3,63.5,29.90,WSW,242,0.0,4.0,94,0.01,,,0.05,VWS V14.01,2013-08-03 15:05:00,
2013-08-03 11:10:00,65.4,63.6,29.90,WSW,242,0.0,4.0,94,0.01,,,0.05,VWS V14.01,2013-08-03 15:10:00,
2013-08-03 11:15:00,65.5,63.7,29.90,WSW,242,3.0,3.0,94,0.01,,,0.05,VWS V14.01,2013-08-03 15:15:00,
2013-08-03 11:20:00,65.6,63.8,29.90,SW,226,2.0,3.0,94,0.02,,,0.06,VWS V14.01,2013-08-03 15:20:00,
2013-08-03 11:25:00,65.6,63.8,29.90,WSW,244,0.0,2.0,94,0.01,,,0.06,VWS V14.01,2013-08-03 15:25:00,
2013-08-03 11:30:00,65.6,63.8,29.90,WSW,251,2.0,3.0,94,0.01,,,0.06,VWS V14.01,2013-08-03 15:30:00,
2013-08-03 11:35:00,65.6,63.8,29.90,West,263,2.0,3.0,94,0.01,,,0.06,VWS V14.01,2013-08-03 15:35:00,
2013-08-03 11:40:00,65.7,63.9,29.90,West,263,0.0,3.0,94,0.02,,,0.07,VWS V14.01,2013-08-03 15:40:00,
2013-08-03 11:45:00,65.7,63.9,29.89,West,263,0.0,1.0,94,0.02,,,0.07,VWS V14.01,2013-08-03 15:45:00,
2013-08-03 11:50:00,65.8,64.0,29.89,West,263,0.0,2.0,94,0.02,,,0.07,VWS V14.01,2013-08-03 15:50:00,
2013-08-03 11:55:00,65.8,64.0,29.89,West,263,0.0,1.0,94,0.03,,,0.08,VWS V14.01,2013-08-03 15:55:00,
2013-08-03 12:00:00,65.8,64.0,29.89,West,263,0.0,1.0,94,0.03,,,0.08,VWS V14.01,2013-08-03 16:00:00,
2013-08-03 12:05:00,65.8,64.0,29.89,West,263,0.0,0.0,94,0.03,,,0.08,VWS V14.01,2013-08-03 16:05:00,
2013-08-03 12:10:00,65.9,64.1,29.89,West,263,0.0,1.0,94,0.03,,,0.08,VWS V14.01,2013-08-03 16:10:00,
2013-08-03 12:15:00,66.0,64.2,29.88,West,268,0.0,3.0,94,0.03,,,0.08,VWS V14.01,2013-08-03 16:15:00,
2013-08-03 12:20:00,66.0,64.2,29.88,West,268,0.0,3.0,94,0.03,,,0.08,VWS V14.01,2013-08-03 16:20:00,
2013-08-03 12:25:00,66.1,64.3,29.88,West,268,0.0,1.0,94,0.02,,,0.08,VWS V14.01,2013-08-03 16:25:00,
2013-08-03 12:30:00,66.2,64.4,29.88,West,268,0.0,3.0,94,0.02,,,0.08,VWS V14.01,2013-08-03 16:30:00,
2013-08-03 12:35:00,66.3,64.5,29.88,West,268,1.0,3.0,94,0.02,,,0.08,VWS V14.01,2013-08-03 16:35:00,
2013-08-03 12:40:00,66.4,64.6,29.88,WNW,286,0.0,3.0,94,0.02,,,0.08,VWS V14.01,2013-08-03 16:40:00,
2013-08-03 12:45:00,66.6,64.8,29.89,WNW,286,1.0,1.0,94,0.01,,,0.08,VWS V14.01,2013-08-03 16:45:00,
2013-08-03 12:50:00,66.7,64.9,29.89,WNW,286,0.0,3.0,94,0.01,,,0.08,VWS V14.01,2013-08-03 16:50:00,
2013-08-03 12:55:00,66.9,65.4,29.89,West,280,0.0,3.0,95,0.01,,,0.08,VWS V14.01,2013-08-03 16:55:00,
2013-08-03 13:00:00,67.2,65.7,29.88,West,280,0.0,3.0,95,0.01,,,0.08,VWS V14.01,2013-08-03 17:00:00,
2013-08-03 13:05:00,67.2,65.4,29.88,West,280,0.0,3.0,94,0.00,,,0.08,VWS V14.01,2013-08-03 17:05:00,
2013-08-03 13:10:00,67.4,65.6,29.88,WNW,288,0.0,3.0,94,0.00,,,0.08,VWS V14.01,2013-08-03 17:10:00,
2013-08-03 13:15:00,67.7,66.2,29.88,WNW,288,0.0,0.0,95,0.00,,,0.08,VWS V14.01,2013-08-03 17:15:00,
2013-08-03 13:20:00,67.7,65.9,29.88,NW,319,2.0,4.0,94,0.00,,,0.08,VWS V14.01,2013-08-03 17:20:00,
2013-08-03 13:25:00,67.6,65.8,29.88,North,355,0.0,3.0,94,0.00,,,0.08,VWS V14.01,2013-08-03 17:25:00,
2013-08-03 13:30:00,67.9,66.1,29.88,West,265,4.0,4.0,94,0.00,,,0.08,VWS V14.01,2013-08-03 17:30:00,
2013-08-03 13:35:00,68.1,66.3,29.88,South,188,0.0,4.0,94,0.00,,,0.08,VWS V14.01,2013-08-03 17:35:00,
2013-08-03 13:40:00,68.1,66.0,29.88,WNW,299,1.0,5.0,93,0.00,,,0.08,VWS V14.01,2013-08-03 17:40:00,
2013-08-03 13:45:00,68.7,66.6,29.88,WSW,257,3.0,6.0,93,0.00,,,0.08,VWS V14.01,2013-08-03 17:45:00,
2013-08-03 13:50:00,68.9,66.5,29.88,WNW,287,0.0,7.0,92,0.00,,,0.08,VWS V14.01,2013-08-03 17:50:00,
2013-08-03 13:55:00,69.2,66.5,29.88,West,259,0.0,10.0,91,0.00,,,0.08,VWS V14.01,2013-08-03 17:55:00,
2013-08-03 14:00:00,69.5,66.4,29.88,WSW,256,0.0,10.0,90,0.00,,,0.08,VWS V14.01,2013-08-03 18:00:00,
2013-08-03 14:05:00,69.7,66.3,29.88,SSE,167,1.0,4.0,89,0.00,,,0.08,VWS V14.01,2013-08-03 18:05:00,
2013-08-03 14:10:00,69.9,66.2,29.88,West,261,0.0,4.0,88,0.00,,,0.08,VWS V14.01,2013-08-03 18:10:00,
2013-08-03 14:15:00,70.3,66.6,29.88,SW,236,0.0,8.0,88,0.00,,,0.08,VWS V14.01,2013-08-03 18:15:00,
2013-08-03 14:20:00,70.6,66.6,29.88,SW,220,2.0,8.0,87,0.00,,,0.08,VWS V14.01,2013-08-03 18:20:00,
2013-08-03 14:25:00,70.7,66.3,29.88,SW,233,1.0,3.0,86,0.00,,,0.08,VWS V14.01,2013-08-03 18:25:00,
2013-08-03 14:30:00,70.8,66.1,29.88,West,266,0.0,7.0,85,0.00,,,0.08,VWS V14.01,2013-08-03 18:30:00,
2013-08-03 14:35:00,71.0,66.3,29.88,West,276,6.0,7.0,85,0.00,,,0.08,VWS V14.01,2013-08-03 18:35:00,
2013-08-03 14:40:00,71.1,66.4,29.88,West,275,0.0,7.0,85,0.00,,,0.08,VWS V14.01,2013-08-03 18:40:00,
2013-08-03 14:45:00,71.3,66.6,29.88,WNW,284,1.0,7.0,85,0.00,,,0.08,VWS V14.01,2013-08-03 18:45:00,
2013-08-03 14:50:00,71.5,66.4,29.88,West,278,10.0,13.0,84,0.00,,,0.08,VWS V14.01,2013-08-03 18:50:00,
2013-08-03 14:55:00,71.7,66.3,29.88,West,265,1.0,6.0,83,0.01,,,0.09,VWS V14.01,2013-08-03 18:55:00,
2013-08-03 15:00:00,72.0,66.6,29.87,WNW,282,2.0,6.0,83,0.01,,,0.09,VWS V14.01,2013-08-03 19:00:00,
2013-08-03 15:05:00,72.1,66.3,29.87,West,265,0.0,5.0,82,0.01,,,0.09,VWS V14.01,2013-08-03 19:05:00,
2013-08-03 15:10:00,72.3,66.5,29.87,WNW,292,8.0,8.0,82,0.01,,,0.09,VWS V14.01,2013-08-03 19:10:00,
2013-08-03 15:15:00,72.5,66.7,29.86,West,276,3.0,6.0,82,0.01,,,0.09,VWS V14.01,2013-08-03 19:15:00,
2013-08-03 15:20:00,72.6,66.1,29.86,West,279,3.0,6.0,80,0.01,,,0.09,VWS V14.01,2013-08-03 19:20:00,
2013-08-03 15:25:00,72.8,67.0,29.86,WNW,286,0.0,5.0,82,0.01,,,0.09,VWS V14.01,2013-08-03 19:25:00,
2013-08-03 15:30:00,73.0,66.8,29.86,SSW,213,1.0,5.0,81,0.01,,,0.09,VWS V14.01,2013-08-03 19:30:00,
2013-08-03 15:35:00,73.1,66.6,29.86,WNW,289,0.0,7.0,80,0.01,,,0.09,VWS V14.01,2013-08-03 19:35:00,
2013-08-03 15:40:00,73.2,66.3,29.86,WSW,250,0.0,7.0,79,0.01,,,0.09,VWS V14.01,2013-08-03 19:40:00,
2013-08-03 15:45:00,73.2,65.9,29.86,West,267,0.0,8.0,78,0.01,,,0.09,VWS V14.01,2013-08-03 19:45:00,
2013-08-03 15:50:00,73.3,66.4,29.86,West,260,0.0,8.0,79,0.01,,,0.09,VWS V14.01,2013-08-03 19:50:00,
2013-08-03 15:55:00,73.3,66.4,29.86,West,274,7.0,8.0,79,0.01,,,0.09,VWS V14.01,2013-08-03 19:55:00,
2013-08-03 16:00:00,73.4,66.9,29.85,WNW,289,0.0,8.0,80,0.01,,,0.09,VWS V14.01,2013-08-03 20:00:00,
2013-08-03 16:05:00,73.6,67.1,29.85,WNW,290,5.0,7.0,80,0.00,,,0.09,VWS V14.01,2013-08-03 20:05:00,
2013-08-03 16:10:00,73.6,66.7,29.85,WNW,283,2.0,8.0,79,0.00,,,0.09,VWS V14.01,2013-08-03 20:10:00,
2013-08-03 16:15:00,73.7,66.8,29.85,West,262,0.0,7.0,79,0.00,,,0.09,VWS V14.01,2013-08-03 20:15:00,
2013-08-03 16:20:00,73.9,67.0,29.85,WSW,250,1.0,7.0,79,0.00,,,0.09,VWS V14.01,2013-08-03 20:20:00,
2013-08-03 16:25:00,74.0,67.1,29.85,WNW,289,0.0,8.0,79,0.00,,,0.09,VWS V14.01,2013-08-03 20:25:00,
2013-08-03 16:30:00,74.1,66.8,29.83,West,274,3.0,8.0,78,0.00,,,0.09,VWS V14.01,2013-08-03 20:30:00,
2013-08-03 16:35:00,74.3,67.0,29.83,West,267,2.0,7.0,78,0.00,,,0.09,VWS V14.01,2013-08-03 20:35:00,
2013-08-03 16:40:00,74.5,67.2,29.83,WNW,294,7.0,7.0,78,0.00,,,0.09,VWS V14.01,2013-08-03 20:40:00,
2013-08-03 16:45:00,74.8,67.1,29.84,NW,320,0.0,6.0,77,0.00,,,0.09,VWS V14.01,2013-08-03 20:45:00,
2013-08-03 16:50:00,74.9,66.8,29.84,WNW,292,0.0,7.0,76,0.00,,,0.09,VWS V14.01,2013-08-03 20:50:00,
2013-08-03 16:55:00,75.1,67.4,29.84,WNW,292,0.0,2.0,77,0.00,,,0.09,VWS V14.01,2013-08-03 20:55:00,
2013-08-03 17:00:00,75.4,67.3,29.83,WNW,290,0.0,6.0,76,0.00,,,0.09,VWS V14.01,2013-08-03 21:00:00,
2013-08-03 17:05:00,75.6,67.5,29.83,NNW,329,0.0,9.0,76,0.00,,,0.09,VWS V14.01,2013-08-03 21:05:00,
2013-08-03 17:10:00,75.8,67.7,29.83,NNW,330,0.0,9.0,76,0.00,,,0.09,VWS V14.01,2013-08-03 21:10:00,
2013-08-03 17:15:00,76.1,68.0,29.85,West,275,0.0,5.0,76,0.00,,,0.09,VWS V14.01,2013-08-03 21:15:00,
2013-08-03 17:20:00,76.3,68.2,29.85,West,275,0.0,5.0,76,0.00,,,0.09,VWS V14.01,2013-08-03 21:20:00,
2013-08-03 17:25:00,76.4,67.5,29.85,West,281,3.0,9.0,74,0.00,,,0.09,VWS V14.01,2013-08-03 21:25:00,
2013-08-03 17:30:00,76.2,66.9,29.85,SSW,192,2.0,9.0,73,0.00,,,0.09,VWS V14.01,2013-08-03 21:30:00,
2013-08-03 17:35:00,75.9,66.6,29.85,West,276,1.0,6.0,73,0.00,,,0.09,VWS V14.01,2013-08-03 21:35:00,
2013-08-03 17:40:00,75.6,66.7,29.85,West,279,2.0,6.0,74,0.00,,,0.09,VWS V14.01,2013-08-03 21:40:00,
2013-08-03 17:45:00,75.2,66.7,29.86,NNW,333,0.0,6.0,75,0.00,,,0.09,VWS V14.01,2013-08-03 21:45:00,
2013-08-03 17:50:00,74.9,66.4,29.86,WNW,292,2.0,6.0,75,0.00,,,0.09,VWS V14.01,2013-08-03 21:50:00,
2013-08-03 17:55:00,74.5,66.8,29.86,NNE,12,0.0,5.0,77,0.00,,,0.09,VWS V14.01,2013-08-03 21:55:00,
2013-08-03 18:00:00,74.2,66.5,29.86,SW,234,0.0,5.0,77,0.00,,,0.09,VWS V14.01,2013-08-03 22:00:00,
2013-08-03 18:05:00,74.0,66.7,29.86,WSW,257,0.0,3.0,78,0.00,,,0.09,VWS V14.01,2013-08-03 22:05:00,
2013-08-03 18:10:00,73.8,66.5,29.86,WSW,257,0.0,3.0,78,0.00,,,0.09,VWS V14.01,2013-08-03 22:10:00,
2013-08-03 18:15:00,73.6,66.7,29.86,NNW,328,0.0,4.0,79,0.00,,,0.09,VWS V14.01,2013-08-03 22:15:00,
2013-08-03 18:20:00,73.4,66.1,29.86,West,279,1.0,5.0,78,0.00,,,0.09,VWS V14.01,2013-08-03 22:20:00,
2013-08-03 18:25:00,73.2,65.9,29.86,WNW,284,1.0,7.0,78,0.00,,,0.09,VWS V14.01,2013-08-03 22:25:00,
2013-08-03 18:30:00,73.1,65.8,29.86,West,278,0.0,7.0,78,0.00,,,0.09,VWS V14.01,2013-08-03 22:30:00,
2013-08-03 18:35:00,73.0,65.7,29.86,WNW,285,2.0,4.0,78,0.00,,,0.09,VWS V14.01,2013-08-03 22:35:00,
2013-08-03 18:40:00,72.8,65.9,29.86,West,278,3.0,4.0,79,0.00,,,0.09,VWS V14.01,2013-08-03 22:40:00,
2013-08-03 18:45:00,72.6,65.3,29.86,West,279,0.0,3.0,78,0.00,,,0.09,VWS V14.01,2013-08-03 22:45:00,
2013-08-03 18:50:00,72.6,65.7,29.86,WNW,282,0.0,3.0,79,0.00,,,0.09,VWS V14.01,2013-08-03 22:50:00,
2013-08-03 18:55:00,72.5,65.6,29.86,West,269,0.0,5.0,79,0.00,,,0.09,VWS V14.01,2013-08-03 22:55:00,
2013-08-03 19:00:00,72.3,65.8,29.86,WNW,292,0.0,5.0,80,0.00,,,0.09,VWS V14.01,2013-08-03 23:00:00,
2013-08-03 19:05:00,72.2,65.7,29.86,WNW,292,0.0,1.0,80,0.00,,,0.09,VWS V14.01,2013-08-03 23:05:00,
2013-08-03 19:10:00,72.1,65.6,29.86,WNW,290,0.0,2.0,80,0.00,,,0.09,VWS V14.01,2013-08-03 23:10:00,
2013-08-03 19:15:00,71.9,65.4,29.86,WNW,284,0.0,4.0,80,0.00,,,0.09,VWS V14.01,2013-08-03 23:15:00,
2013-08-03 19:20:00,71.7,65.2,29.86,WNW,284,0.0,4.0,80,0.00,,,0.09,VWS V14.01,2013-08-03 23:20:00,
2013-08-03 19:25:00,71.6,65.1,29.86,WNW,284,0.0,0.0,80,0.00,,,0.09,VWS V14.01,2013-08-03 23:25:00,
2013-08-03 19:30:00,71.5,65.4,29.86,WNW,284,0.0,0.0,81,0.00,,,0.09,VWS V14.01,2013-08-03 23:30:00,
2013-08-03 19:35:00,71.3,65.5,29.86,WNW,284,0.0,0.0,82,0.00,,,0.09,VWS V14.01,2013-08-03 23:35:00,
2013-08-03 19:40:00,71.1,65.3,29.86,WNW,284,0.0,1.0,82,0.00,,,0.09,VWS V14.01,2013-08-03 23:40:00,
2013-08-03 19:45:00,70.9,65.1,29.86,WNW,284,0.0,0.0,82,0.00,,,0.09,VWS V14.01,2013-08-03 23:45:00,
2013-08-03 19:50:00,70.8,65.4,29.86,WNW,284,0.0,0.0,83,0.00,,,0.09,VWS V14.01,2013-08-03 23:50:00,
2013-08-03 19:55:00,70.6,65.2,29.86,WNW,284,0.0,0.0,83,0.00,,,0.09,VWS V14.01,2013-08-03 23:55:00,
2013-08-03 20:00:00,70.4,65.0,29.87,WNW,284,0.0,2.0,83,0.00,,,0.09,VWS V14.01,2013-08-04 00:00:00,
2013-08-03 20:05:00,70.3,65.2,29.87,WNW,284,0.0,0.0,84,0.00,,,0.09,VWS V14.01,2013-08-04 00:05:00,
2013-08-03 20:10:00,70.2,65.1,29.87,WNW,284,0.0,0.0,84,0.00,,,0.09,VWS V14.01,2013-08-04 00:10:00,
2013-08-03 20:15:00,70.1,65.4,29.87,WNW,284,0.0,0.0,85,0.00,,,0.09,VWS V14.01,2013-08-04 00:15:00,
2013-08-03 20:20:00,69.9,65.2,29.86,WNW,284,0.0,0.0,85,0.00,,,0.09,VWS V14.01,2013-08-04 00:20:00,
2013-08-03 20:24:00,69.9,65.2,29.86,WNW,284,2.0,3.0,85,0.00,,,0.09,VWS V14.01,2013-08-04 00:24:00,
2013-08-03 20:30:00,69.8,65.4,29.87,West,271,0.0,4.0,86,0.00,,,0.09,VWS V14.01,2013-08-04 00:30:00,
2013-08-03 20:35:00,69.7,65.3,29.87,WSW,254,0.0,3.0,86,0.00,,,0.09,VWS V14.01,2013-08-04 00:35:00,
2013-08-03 20:39:00,69.5,65.1,29.87,WNW,293,0.0,9.0,86,0.00,,,0.09,VWS V14.01,2013-08-04 00:39:00,
2013-08-03 20:45:00,69.4,65.0,29.87,WSW,254,0.0,4.0,86,0.00,,,0.09,VWS V14.01,2013-08-04 00:45:00,
2013-08-03 20:50:00,69.4,65.4,29.87,West,266,0.0,4.0,87,0.00,,,0.09,VWS V14.01,2013-08-04 00:50:00,
2013-08-03 20:55:00,69.2,64.8,29.87,WNW,289,0.0,4.0,86,0.00,,,0.09,VWS V14.01,2013-08-04 00:55:00,
2013-08-03 21:00:00,69.0,64.6,29.87,WNW,287,0.0,4.0,86,0.00,,,0.09,VWS V14.01,2013-08-04 01:00:00,
2013-08-03 21:05:00,68.8,64.4,29.88,WNW,287,0.0,0.0,86,0.00,,,0.09,VWS V14.01,2013-08-04 01:05:00,
2013-08-03 21:10:00,68.6,64.2,29.88,West,273,0.0,7.0,86,0.00,,,0.09,VWS V14.01,2013-08-04 01:10:00,
2013-08-03 21:14:00,68.4,64.1,29.88,West,273,0.0,1.0,86,0.00,,,0.09,VWS V14.01,2013-08-04 01:14:00,
2013-08-03 21:20:00,68.2,63.9,29.89,West,273,0.0,1.0,86,0.00,,,0.09,VWS V14.01,2013-08-04 01:20:00,
2013-08-03 21:25:00,68.0,63.3,29.89,West,273,0.0,1.0,85,0.00,,,0.09,VWS V14.01,2013-08-04 01:25:00,
2013-08-03 21:30:00,67.8,63.1,29.89,West,273,0.0,1.0,85,0.00,,,0.09,VWS V14.01,2013-08-04 01:30:00,
2013-08-03 21:35:00,67.6,62.9,29.89,West,273,0.0,0.0,85,0.00,,,0.09,VWS V14.01,2013-08-04 01:35:00,
2013-08-03 21:39:00,67.4,63.1,29.89,West,273,0.0,0.0,86,0.00,,,0.09,VWS V14.01,2013-08-04 01:39:00,
2013-08-03 21:45:00,67.1,62.8,29.89,West,273,0.0,0.0,86,0.00,,,0.09,VWS V14.01,2013-08-04 01:45:00,
2013-08-03 21:50:00,66.8,62.5,29.88,West,273,0.0,0.0,86,0.00,,,0.09,VWS V14.01,2013-08-04 01:50:00,
2013-08-03 21:55:00,66.4,62.1,29.88,West,273,0.0,0.0,86,0.00,,,0.09,VWS V14.01,2013-08-04 01:55:00,
2013-08-03 21:59:00,66.1,62.1,29.88,West,273,0.0,0.0,87,0.00,,,0.09,VWS V14.01,2013-08-04 01:59:00,
2013-08-03 22:05:00,65.8,61.8,29.89,West,273,0.0,0.0,87,0.00,,,0.09,VWS V14.01,2013-08-04 02:05:00,
2013-08-03 22:10:00,65.6,61.6,29.89,West,273,0.0,0.0,87,0.00,,,0.09,VWS V14.01,2013-08-04 02:10:00,
2013-08-03 22:15:00,65.3,61.7,29.89,West,273,0.0,0.0,88,0.00,,,0.09,VWS V14.01,2013-08-04 02:15:00,
2013-08-03 22:19:00,65.1,61.5,29.88,West,273,0.0,0.0,88,0.00,,,0.09,VWS V14.01,2013-08-04 02:19:00,
2013-08-03 22:25:00,64.9,61.3,29.88,West,273,0.0,0.0,88,0.00,,,0.09,VWS V14.01,2013-08-04 02:25:00,
2013-08-03 22:30:00,64.7,61.4,29.88,West,273,0.0,0.0,89,0.00,,,0.09,VWS V14.01,2013-08-04 02:30:00,
2013-08-03 22:35:00,64.5,61.2,29.88,West,273,0.0,0.0,89,0.00,,,0.09,VWS V14.01,2013-08-04 02:35:00,
2013-08-03 22:39:00,64.3,61.0,29.88,West,273,0.0,0.0,89,0.00,,,0.09,VWS V14.01,2013-08-04 02:39:00,
2013-08-03 22:45:00,64.1,61.1,29.88,West,273,0.0,0.0,90,0.00,,,0.09,VWS V14.01,2013-08-04 02:45:00,
2013-08-03 22:50:00,63.9,60.9,29.88,West,273,0.0,0.0,90,0.00,,,0.09,VWS V14.01,2013-08-04 02:50:00,
2013-08-03 22:55:00,63.7,60.7,29.88,West,273,0.0,0.0,90,0.00,,,0.09,VWS V14.01,2013-08-04 02:55:00,
2013-08-03 23:00:00,63.6,60.9,29.88,West,273,0.0,0.0,91,0.00,,,0.09,VWS V14.01,2013-08-04 03:00:00,
2013-08-03 23:05:00,63.5,60.8,29.88,West,273,0.0,0.0,91,0.00,,,0.09,VWS V14.01,2013-08-04 03:05:00,
2013-08-03 23:10:00,63.4,60.7,29.88,West,273,0.0,0.0,91,0.00,,,0.09,VWS V14.01,2013-08-04 03:10:00,
2013-08-03 23:15:00,63.3,60.6,29.88,West,273,0.0,0.0,91,0.00,,,0.09,VWS V14.01,2013-08-04 03:15:00,
2013-08-03 23:20:00,63.3,60.6,29.88,West,273,0.0,0.0,91,0.00,,,0.09,VWS V14.01,2013-08-04 03:20:00,
2013-08-03 23:24:00,63.2,60.5,29.88,West,273,0.0,0.0,91,0.00,,,0.09,VWS V14.01,2013-08-04 03:24:00,
2013-08-03 23:29:00,63.1,60.4,29.88,West,273,0.0,0.0,91,0.00,,,0.09,VWS V14.01,2013-08-04 03:29:00,
2013-08-03 23:34:00,63.0,60.3,29.88,West,273,0.0,0.0,91,0.00,,,0.09,VWS V14.01,2013-08-04 03:34:00,
2013-08-03 23:35:00,63.0,60.3,29.88,West,273,0.0,0.0,91,0.00,,,0.09,VWS V14.01,2013-08-04 03:35:00,
2013-08-03 23:40:00,62.9,60.2,29.88,West,273,0.0,0.0,91,0.00,,,0.09,VWS V14.01,2013-08-04 03:40:00,
2013-08-03 23:44:00,62.9,60.2,29.88,West,273,0.0,0.0,91,0.00,,,0.09,VWS V14.01,2013-08-04 03:44:00,
2013-08-03 23:50:00,62.9,60.5,29.88,West,273,0.0,0.0,92,0.00,,,0.09,VWS V14.01,2013-08-04 03:50:00,
2013-08-03 23:54:00,62.9,60.5,29.88,West,273,0.0,0.0,92,0.00,,,0.09,VWS V14.01,2013-08-04 03:54:00,